Tracking 31029 objects as of 15-Jul-2025
HD Live streaming from Space Station
objects crossing your sky now

ARIANE 42P+ DEB

Track ARIANE 42P+ DEB now!


NORAD ID: 26850
Int'l Code: 1992-072K
Perigee: 904.4 km
Apogee: 27,880.5 km
Inclination: 7.7 °
Period: 496.3 minutes
Semi major axis: 20763 km
RCS: 0.4117 m2 (medium)
Launch date: October 28, 1992
Source: France (FR)
Launch site: FRENCH GUIANA (FRGUI)

Note: This is SATELLITE DEBRIS
Your satellite tracking list
Your tracking list is empty




NASA's NSSDC Master Catalog

Two Line Element Set (TLE):
1 26850U 92072K   25196.18071357 -.00000120  00000-0 -19095-2 0  9997
2 26850   7.6551 334.4839 6496040 132.1659 305.2206  2.90170218273838
Source of the keplerian elements: AFSPC